Location: Kershaw
(34.5481°N, 80.5823°W)
Time: 15:41:13
(UTC+00:00)

Courier 1B Rocket - Pass Details

Date: 26 September 2022
Orbit: 920 x 1202 km, 28.2° (Epoch: 08 December)

Event Time Altitude Azimuth Distance (km) Brightness Sun altitude
Rises 08:46:42 0° 263° (W) 3,647 - -30.4°
Reaches altitude 10° 08:50:12 10° 245° (WSW) 2,744 - -29.7°
Maximum altitude 08:54:27 18° 205° (SSW) 2,278 - -28.9°
Exits shadow 08:57:45 13° 173° (S) 2,633 7.1 -28.2°
Drops below altitude 10° 08:58:53 10° 165° (SSE) 2,870 7.4 -28.0°
Sets 09:02:41 0° 147° (SSE) 3,883 8.3 -27.3°
